DW7857 Weather Reports


time (UTC)temp
F
wind
direction
speed
knots
gust
knots
rain 1hr
in
rain 24hr
in
rain mn
in
humidity
%
barometer
mb
20171123222016 45 0 0.0 0.0 0.00 0.35 0.15 71 996.4
20171123221016 46 60 0.0 1.7 0.00 0.38 0.15 66 996.3
20171123220016 46 0 0.0 0.0 0.00 0.40 0.15 65 996.7
20171123215016 46 314 0.0 0.9 0.00 0.41 0.15 64 996.6
20171123214016 46 0 0.0 0.0 0.00 0.45 0.15 64 996.5
20171123213016 46 305 0.9 2.6 0.00 0.56 0.15 64 996.5
20171123212016 46 0 0.0 0.0 0.00 0.57 0.15 63 996.6
20171123211016 46 0 0.0 0.0 0.00 0.58 0.15 63 996.5
20171123210016 46 248 0.9 3.5 0.00 0.59 0.15 63 996.9
20171123205016 47 242 1.7 4.3 0.00 0.60 0.15 63 996.5
20171123204016 47 300 2.6 4.3 0.00 0.74 0.15 63 996.6
20171123203016 47 306 2.6 7.0 0.00 0.84 0.15 64 996.4
20171123202016 47 295 2.6 6.1 0.00 0.84 0.15 64 996.6
20171123201016 47 321 4.3 8.7 0.00 0.87 0.15 64 996.1
20171123200016 47 344 6.1 8.7 0.00 0.87 0.15 64 996.3
20171123195016 48 298 5.2 7.8 0.00 0.89 0.15 62 996.3
20171123194016 48 334 2.6 4.3 0.00 0.92 0.15 61 996.1
20171123193016 49 316 3.5 7.0 0.00 0.92 0.15 60 995.7
20171123192016 49 312 4.3 7.0 0.00 0.92 0.15 60 995.6
20171123191016 48 270 0.0 0.9 0.00 0.92 0.15 60 996.0
20171123190016 48 201 1.7 6.1 0.00 0.92 0.15 60 995.8
20171123185016 48 202 1.7 3.5 0.00 0.92 0.15 60 995.8
20171123184016 49 209 1.7 3.5 0.00 0.92 0.15 60 995.9
20171123183016 49 247 4.3 7.8 0.00 0.92 0.15 60 996.0
20171123182016 49 197 4.3 7.8 0.00 0.92 0.15 60 995.9
20171123181016 49 248 3.5 5.2 0.00 0.92 0.15 60 995.9
20171123180016 49 220 4.3 7.0 0.00 0.92 0.15 59 995.4
20171123175016 49 154 2.6 3.5 0.00 0.92 0.15 58 995.3
20171123174016 49 177 3.5 5.2 0.00 0.94 0.15 58 995.2
20171123173016 49 230 3.5 6.1 0.00 0.94 0.15 59 995.3
20171123172016 49 224 3.5 7.0 0.00 0.94 0.15 60 995.0
20171123171016 49 227 3.5 5.2 0.00 0.94 0.15 60 994.5
20171123170016 49 226 2.6 4.3 0.00 0.94 0.15 59 994.6
20171123165016 49 238 4.3 7.0 0.00 0.94 0.15 59 994.7
20171123164016 49 182 5.2 7.0 0.00 0.96 0.15 59 994.7
20171123163016 49 201 2.6 7.0 0.00 0.97 0.15 60 994.3
20171123162016 49 195 2.6 4.3 0.00 0.97 0.15 60 994.2
20171123161016 49 189 1.7 3.5 0.00 0.97 0.15 60 994.0
20171123160016 49 210 3.5 7.8 0.00 0.97 0.15 60 993.8
20171123155016 49 192 3.5 6.1 0.00 0.98 0.15 58 993.6
20171123154015 50 199 5.2 7.0 0.00 0.98 0.15 56 993.5
20171123153016 50 183 7.0 12.2 0.00 0.98 0.15 55 993.7
20171123152016 51 341 7.0 11.3 0.00 0.98 0.15 55 993.6
20171123151016 51 184 5.2 8.7 0.00 0.98 0.15 54 993.5
20171123150015 51 209 6.1 8.7 0.00 0.98 0.15 53 993.2
20171123145016 52 194 5.2 9.6 0.00 0.98 0.15 52 993.1
20171123144015 52 177 6.1 8.7 0.00 0.98 0.15 51 992.7
20171123143016 53 203 5.2 7.8 0.00 0.98 0.15 49 992.7
20171123142016 54 217 7.0 9.6 0.00 0.98 0.15 46 992.6
20171123141015 54 260 8.7 13.0 0.00 1.00 0.15 45 992.6
20171123140015 55 263 8.7 13.0 0.00 1.00 0.15 41 992.5
20171123135016 54 228 7.0 9.6 0.00 1.00 0.15 48 992.6
20171123134017 52 264 6.1 8.7 0.00 1.00 0.15 51 992.4
20171123133015 53 231 7.8 12.2 0.00 1.03 0.15 49 992.3
20171123132016 53 272 7.0 12.2 0.00 1.03 0.15 50 992.2
20171123131015 55 246 8.7 12.2 0.00 1.03 0.15 42 991.9
20171123130017 55 239 7.0 11.3 0.00 1.03 0.15 44 991.8
20171123125017 54 240 9.6 13.0 0.00 1.03 0.15 51 991.5
20171123124015 52 269 9.6 13.0 0.00 1.03 0.15 53 991.7
20171123122016 55 283 7.8 11.3 0.00 1.03 0.15 47 991.1
20171123121015 54 263 8.7 13.0 0.00 1.03 0.15 51 991.1
20171123120016 54 217 7.8 12.2 0.00 1.03 0.15 51 991.0
20171123115016 54 215 6.1 10.4 0.00 1.03 0.15 51 991.2
20171123114016 54 213 8.7 15.6 0.00 1.03 0.15 50 990.9
20171123113017 54 217 7.8 11.3 0.00 1.03 0.15 51 990.9
20171123112016 54 252 6.1 9.6 0.00 1.03 0.15 52 990.7
20171123111016 53 236 6.1 8.7 0.00 1.03 0.15 54 990.7
20171123110017 52 210 7.0 8.7 0.00 1.03 0.15 54 990.7
20171123105016 51 212 7.0 10.4 0.00 1.03 0.15 58 990.6
20171123104016 49 184 7.8 13.9 0.00 1.03 0.15 59 990.4
20171123103016 49 237 6.1 11.3 0.00 1.03 0.15 60 990.0
20171123102016 49 189 7.8 13.0 0.00 1.03 0.15 60 989.7
20171123101016 48 222 7.0 12.2 0.00 1.03 0.15 61 989.7
20171123100017 48 183 6.1 9.6 0.00 1.03 0.15 62 989.6
20171123095016 47 159 5.2 7.8 0.00 1.03 0.15 62 989.3
20171123094021 47 227 4.3 7.8 0.00 1.03 0.15 63 989.1
20171123093016 47 207 5.2 7.0 0.00 1.03 0.15 64 988.8
20171123092016 46 196 5.2 7.0 0.00 1.03 0.15 65 988.5
20171123091016 46 197 4.3 7.0 0.00 1.03 0.15 66 988.4
20171123090016 46 218 6.1 8.7 0.00 1.03 0.15 66 988.1
20171123085016 46 218 5.2 8.7 0.00 1.03 0.15 67 987.8
20171123084017 45 192 4.3 7.0 0.00 1.03 0.15 73 987.9
20171123083016 45 208 4.3 7.0 0.00 1.03 0.15 75 987.6
20171123082017 44 169 4.3 7.0 0.00 1.03 0.15 74 987.4
20171123081016 44 195 3.5 7.0 0.00 1.03 0.15 73 987.0
20171123080016 44 213 3.5 5.2 0.00 1.03 0.15 73 987.0
20171123075016 44 210 3.5 5.2 0.00 1.03 0.15 74 986.6
20171123074016 44 286 4.3 7.0 0.00 1.03 0.15 74 986.2
20171123073016 44 286 3.5 5.2 0.00 1.03 0.15 75 985.8
20171123072016 45 295 3.5 5.2 0.00 1.03 0.15 76 985.4
20171123071016 45 205 3.5 3.5 0.00 1.03 0.15 77 985.1
20171123070016 45 209 3.5 4.3 0.00 1.03 0.15 77 984.9
20171123065016 45 168 4.3 7.0 0.00 1.03 0.15 77 984.4
20171123064017 46 15 6.1 9.6 0.00 1.03 0.15 72 984.1
20171123063016 46 334 5.2 7.8 0.00 1.03 0.15 72 983.8
20171123062016 46 298 4.3 6.1 0.00 1.03 0.15 72 983.6
20171123061016 47 310 7.0 9.6 0.00 1.03 0.15 72 983.1
20171123060016 47 314 7.0 9.6 0.00 1.03 0.15 73 983.0
20171123055016 47 332 9.6 13.9 0.00 1.03 0.15 74 982.5
20171123054010 48 312 9.6 13.0 0.00 1.03 0.15 75 982.7
20171123053010 49 297 9.6 13.9 0.01 1.03 0.15 74 981.9
20171123052010 49 305 9.6 13.0 0.01 1.03 0.15 74 981.4
20171123051010 50 307 7.8 9.6 0.01 1.03 0.15 75 981.1
20171123050010 50 313 9.6 13.0 0.01 1.03 0.15 75 980.7
20171123045010 52 307 9.6 13.0 0.01 1.03 0.15 76 980.4
20171123044010 53 276 7.0 13.0 0.01 1.03 0.15 79 979.7
20171123043010 53 200 7.0 9.6 0.00 1.02 0.14 79 978.9
20171123042010 53 237 6.1 10.4 0.00 1.02 0.14 78 978.5
20171123041010 54 226 7.0 9.6 0.00 1.02 0.14 77 978.4
20171123040010 54 238 8.7 14.8 0.00 1.02 0.14 79 977.8
20171123035010 53 215 7.0 12.2 0.00 1.02 0.14 81 977.8
20171123034010 53 190 6.1 8.7 0.00 1.02 0.14 81 977.6
20171123033010 53 197 5.2 8.7 0.00 1.02 0.14 81 977.2
20171123032010 53 221 7.0 11.3 0.00 1.02 0.14 81 976.9
20171123031010 53 235 7.0 10.4 0.00 1.02 0.14 81 976.7
20171123030010 53 210 7.8 11.3 0.00 1.02 0.14 82 976.6
20171123025010 53 200 7.8 9.6 0.00 1.02 0.14 83 976.5
20171123024010 53 186 6.1 13.0 0.00 1.02 0.14 84 976.3
20171123023011 53 197 6.1 7.8 0.00 1.02 0.14 84 976.2
20171123022010 52 233 4.3 6.1 0.00 1.02 0.14 84 976.3
20171123021010 52 196 5.2 6.1 0.00 1.02 0.14 84 976.0
20171123020010 53 202 5.2 7.0 0.00 1.02 0.14 84 975.8
20171123015010 53 221 5.2 7.0 0.00 1.02 0.14 84 975.8
20171123014010 53 178 5.2 7.0 0.00 1.02 0.14 84 976.0
20171123013012 53 207 5.2 7.0 0.01 1.02 0.14 84 975.5
20171123012010 53 197 5.2 7.0 0.04 1.02 0.14 84 975.5
20171123011011 53 179 6.1 8.7 0.07 1.02 0.14 84 975.7
20171123010010 53 202 5.2 8.7 0.14 1.02 0.14 84 975.8
20171123005010 53 241 3.5 7.0 0.14 1.02 0.14 84 975.7
20171123004010 53 193 4.3 8.7 0.15 1.02 0.14 84 975.9
20171123003012 53 193 7.8 12.2 0.14 1.00 0.13 84 976.0
20171123002010 53 208 10.4 16.5 0.14 0.98 0.11 84 975.6
20171123001010 53 218 11.3 16.5 0.15 0.94 0.07 84 975.7
20171123000016 53 225 11.3 18.2 0.09 0.87 0.00 84 975.9
20171122235010 53 221 11.3 19.1 0.12 0.87 0.87 84 975.9
20171122234010 53 231 11.3 18.2 0.15 0.86 0.86 84 975.9
20171122233010 53 235 9.6 13.0 0.17 0.86 0.86 84 976.0
20171122232010 53 192 10.4 13.0 0.17 0.84 0.84 84 976.2
20171122231010 53 222 9.6 14.8 0.13 0.78 0.78 83 976.2
20171122230010 53 228 9.6 14.8 0.14 0.78 0.78 83 976.2
20171122225010 53 174 9.6 13.0 0.14 0.76 0.76 83 976.4
20171122224010 53 211 11.3 13.9 0.12 0.71 0.71 83 976.7